,,Stat6,,Stat2,,Stat8,,Stat9,,Stat10,,Wind1,,Wind1,
time,status,PA1M_AVG,status,PR1M_SUM,status,RH1M_AVG,status,SR1M_AVG,status,TA1M_AVG,status,W1dAve1m,status,W1sAve1m,
2004-11-24, 00:00:00,VALID,918.079,VALID,0,VALID,99.8871,VALID,0.0509425,VALID,20.0845,VALID,229,VALID,0.126598,
2004-11-24, 00:01:00,VALID,918.087,VALID,0,VALID,99.8184,VALID,0.101885,VALID,20.0875,VALID,229,VALID,0,
2004-11-24, 00:02:00,VALID,918.07,VALID,0,VALID,99.8032,VALID,0.0169808,VALID,20.1012,VALID,229,VALID,0,
2004-11-24, 00:03:00,VALID,918.082,VALID,0,VALID,99.8311,VALID,0,VALID,20.1039,VALID,229,VALID,0,
2004-11-24, 00:04:00,VALID,918.079,VALID,0,VALID,99.8375,VALID,0.0339617,VALID,20.1236,VALID,228,VALID,0.265439,
2004-11-24, 00:05:00,VALID,918.089,VALID,0,VALID,99.7803,VALID,0,VALID,20.133,VALID,216,VALID,0.481971,
2004-11-24, 00:06:00,VALID,918.075,VALID,0,VALID,99.5717,VALID,0.0169808,VALID,20.1096,VALID,185,VALID,0.725074,
2004-11-24, 00:07:00,VALID,918.069,VALID,0,VALID,99.5259,VALID,0.0169808,VALID,20.1131,VALID,175,VALID,0.427604,
2004-11-24, 00:08:00,VALID,918.05,VALID,0,VALID,99.5476,VALID,0.0679233,VALID,20.1201,VALID,183,VALID,0.310785,
2004-11-24, 00:09:00,VALID,918.036,VALID,0,VALID,99.634,VALID,0,VALID,20.1365,VALID,183,VALID,0.0968387,
2004-11-24, 00:10:00,VALID,918.011,VALID,0,VALID,99.6671,VALID,0,VALID,20.1459,VALID,183,VALID,0,
2004-11-24, 00:11:00,VALID,917.986,VALID,0,VALID,99.6836,VALID,0.0679233,VALID,20.1588,VALID,183,VALID,0,
2004-11-24, 00:12:00,VALID,917.968,VALID,0,VALID,99.6824,VALID,0.0169808,VALID,20.1613,VALID,183,VALID,0,
2004-11-24, 00:13:00,VALID,917.948,VALID,0,VALID,99.5895,VALID,-0.0169808,VALID,20.1814,VALID,183,VALID,0.00372869,
2004-11-24, 00:14:00,VALID,917.945,VALID,0,VALID,99.5043,VALID,0,VALID,20.1712,VALID,188,VALID,0.138626,
2004-11-24, 00:15:01,VALID,917.945,VALID,0,VALID,99.4039,VALID,0.0169808,VALID,20.1583,VALID,233,VALID,0.445499,
2004-11-24, 00:16:00,VALID,917.943,VALID,0,VALID,99.3746,VALID,-0.0169808,VALID,20.1531,VALID,233,VALID,0.424107,
2004-11-24, 00:17:00,VALID,917.928,VALID,0,VALID,99.3912,VALID,-0.101885,VALID,20.1243,VALID,235,VALID,0.404297,
2004-11-24, 00:18:00,VALID,917.924,VALID,0,VALID,99.4878,VALID,-0.0849042,VALID,20.1179,VALID,235,VALID,0.0807884,
2004-11-24, 00:19:00,VALID,917.907,VALID,0,VALID,99.5425,VALID,-0.0509425,VALID,20.1213,VALID,235,VALID,0.0261628,
2004-11-24, 00:20:00,VALID,917.908,VALID,0,VALID,99.6073,VALID,-0.0849042,VALID,20.1208,VALID,235,VALID,0.184095,
2004-11-24, 00:21:00,VALID,917.905,VALID,0,VALID,99.6468,VALID,-0.0679233,VALID,20.1305,VALID,235,VALID,0.225654,
2004-11-24, 00:22:01,VALID,917.897,VALID,0,VALID,99.6646,VALID,-0.101885,VALID,20.1437,VALID,235,VALID,0.193496,
2004-11-24, 00:23:00,VALID,917.874,VALID,0,VALID,99.6315,VALID,-0.0849042,VALID,20.1477,VALID,235,VALID,0.10556,
2004-11-24, 00:24:00,VALID,917.863,VALID,0,VALID,99.6735,VALID,-0.0679233,VALID,20.1502,VALID,235,VALID,0.03125,
2004-11-24, 00:25:00,VALID,917.859,VALID,0,VALID,99.5819,VALID,-0.101885,VALID,20.1668,VALID,235,VALID,0.225419,
2004-11-24, 00:26:00,VALID,917.845,VALID,0,VALID,99.4853,VALID,-0.0679233,VALID,20.1564,VALID,247,VALID,0.227307,
2004-11-24, 00:27:01,VALID,917.851,VALID,0,VALID,99.4624,VALID,-0.101885,VALID,20.134,VALID,272,VALID,0.349144,
2004-11-24, 00:28:00,VALID,917.844,VALID,0,VALID,99.4357,VALID,-0.0679233,VALID,20.1343,VALID,279,VALID,0.136905,
2004-11-24, 00:29:00,VALID,917.845,VALID,0,VALID,99.4853,VALID,-0.0679233,VALID,20.1313,VALID,267,VALID,0.313542,
2004-11-24, 00:30:00,VALID,917.846,VALID,0,VALID,99.5005,VALID,-0.0849042,VALID,20.1144,VALID,257,VALID,0.0929878,
2004-11-24, 00:31:00,VALID,917.838,VALID,0,VALID,99.5081,VALID,-0.101885,VALID,20.1206,VALID,257,VALID,0.122142,
2004-11-24, 00:32:00,VALID,917.841,VALID,0,VALID,99.5412,VALID,-0.101885,VALID,20.1211,VALID,257,VALID,0,
2004-11-24, 00:33:00,VALID,917.833,VALID,0,VALID,99.5666,VALID,-0.101885,VALID,20.1407,VALID,257,VALID,0,
2004-11-24, 00:34:00,VALID,917.829,VALID,0,VALID,99.5717,VALID,-0.101885,VALID,20.14,VALID,257,VALID,0.00815217,
2004-11-24, 00:35:01,VALID,917.814,VALID,0,VALID,99.6493,VALID,-0.0679233,VALID,20.1601,VALID,263,VALID,0.147905,
2004-11-24, 00:36:00,VALID,917.792,VALID,0,VALID,99.6811,VALID,-0.0679233,VALID,20.179,VALID,280,VALID,0.170922,
2004-11-24, 00:37:00,VALID,917.782,VALID,0,VALID,99.6556,VALID,-0.0339617,VALID,20.2083,VALID,280,VALID,0.253299,
2004-11-24, 00:38:00,VALID,917.782,VALID,0,VALID,99.6124,VALID,-0.0509425,VALID,20.2145,VALID,352,VALID,0.417683,
2004-11-24, 00:39:01,VALID,917.758,VALID,0,VALID,99.4865,VALID,0,VALID,20.2247,VALID,30,VALID,0.308036,
2004-11-24, 00:40:00,VALID,917.75,VALID,0,VALID,99.4992,VALID,-0.0679233,VALID,20.2307,VALID,30,VALID,0.110352,
2004-11-24, 00:41:00,VALID,917.726,VALID,0,VALID,99.4408,VALID,-0.0509425,VALID,20.2468,VALID,30,VALID,0.00186012,
2004-11-24, 00:42:01,VALID,917.708,VALID,0,VALID,99.278,VALID,-0.0849042,VALID,20.2242,VALID,30,VALID,0,
2004-11-24, 00:43:00,VALID,917.685,VALID,0,VALID,99.2309,VALID,-0.101885,VALID,20.2309,VALID,30,VALID,0,
2004-11-24, 00:44:00,VALID,917.682,VALID,0,VALID,99.2309,VALID,-0.0339617,VALID,20.2339,VALID,30,VALID,0.18532,
2004-11-24, 00:45:00,VALID,917.657,VALID,0,VALID,99.2576,VALID,-0.0849042,VALID,20.2436,VALID,30,VALID,0.225419,
2004-11-24, 00:46:01,VALID,917.643,VALID,0,VALID,99.2208,VALID,-0.0679233,VALID,20.2734,VALID,30,VALID,0.00327035,
2004-11-24, 00:47:01,VALID,917.63,VALID,0,VALID,99.1279,VALID,0.0339617,VALID,20.2622,VALID,30,VALID,0,
2004-11-24, 00:48:00,VALID,917.598,VALID,0,VALID,99.1318,VALID,0.0169808,VALID,20.2751,VALID,30,VALID,0,
2004-11-24, 00:49:00,VALID,917.572,VALID,0,VALID,99.0885,VALID,0,VALID,20.2942,VALID,30,VALID,0.121366,
2004-11-24, 00:50:01,VALID,917.561,VALID,0,VALID,98.9168,VALID,0.0339617,VALID,20.2582,VALID,29,VALID,0.221839,
2004-11-24, 00:51:00,VALID,917.536,VALID,0,VALID,98.8533,VALID,0,VALID,20.249,VALID,27,VALID,0.311435,
2004-11-24, 00:52:00,VALID,917.517,VALID,0,VALID,98.7363,VALID,0.0339617,VALID,20.216,VALID,27,VALID,0.300586,
2004-11-24, 00:53:00,VALID,917.495,VALID,0,VALID,98.7452,VALID,0.0169808,VALID,20.1807,VALID,27,VALID,0.121548,
2004-11-24, 00:54:00,VALID,917.477,VALID,0,VALID,98.8469,VALID,0.0169808,VALID,20.171,VALID,27,VALID,0.0747768,
2004-11-24, 00:55:01,VALID,917.463,VALID,0,VALID,98.8609,VALID,0.0169808,VALID,20.1812,VALID,27,VALID,0.124826,
2004-11-24, 00:56:01,VALID,917.45,VALID,0,VALID,98.9461,VALID,0.0679233,VALID,20.1581,VALID,21,VALID,0.71766,
2004-11-24, 00:57:01,VALID,917.443,VALID,0,VALID,99.0796,VALID,0,VALID,20.1519,VALID,24,VALID,0.774023,
2004-11-24, 00:58:01,VALID,917.444,VALID,0,VALID,99.1788,VALID,0.0509425,VALID,20.1519,VALID,23,VALID,0.580433,
2004-11-24, 00:59:00,VALID,917.439,VALID,0,VALID,99.1572,VALID,0,VALID,20.1524,VALID,23,VALID,0.389535,
2004-11-24, 01:00:00,VALID,917.446,VALID,0,VALID,99.1559,VALID,0.0169808,VALID,20.1452,VALID,23,VALID,0.292411,
2004-11-24, 01:01:01,VALID,917.443,VALID,0,VALID,99.1127,VALID,0.0169808,VALID,20.1392,VALID,23,VALID,0.333757,
2004-11-24, 01:02:00,VALID,917.431,VALID,0,VALID,99.1979,VALID,-0.0339617,VALID,20.1305,VALID,23,VALID,0.466518,
2004-11-24, 01:03:01,VALID,917.431,VALID,0,VALID,99.2131,VALID,-0.0679233,VALID,20.1338,VALID,23,VALID,0.568788,
2004-11-24, 01:04:00,VALID,917.429,VALID,0,VALID,99.2131,VALID,-0.0509425,VALID,20.1412,VALID,23,VALID,0.388207,
2004-11-24, 01:05:00,VALID,917.429,VALID,0,VALID,99.203,VALID,-0.0509425,VALID,20.137,VALID,23,VALID,0.351563,
2004-11-24, 01:06:00,VALID,917.406,VALID,0,VALID,99.1508,VALID,-0.101885,VALID,20.131,VALID,23,VALID,0.326219,
2004-11-24, 01:07:01,VALID,917.389,VALID,0,VALID,99.1216,VALID,-0.101885,VALID,20.1275,VALID,23,VALID,0.317472,
2004-11-24, 01:08:01,VALID,917.377,VALID,0,VALID,99.1038,VALID,-0.101885,VALID,20.131,VALID,23,VALID,0.356898,
2004-11-24, 01:09:01,VALID,917.368,VALID,0,VALID,99.0402,VALID,-0.0509425,VALID,20.0947,VALID,23,VALID,0.392442,
2004-11-24, 01:10:00,VALID,917.347,VALID,0,VALID,99.1496,VALID,-0.0849042,VALID,20.0918,VALID,23,VALID,0.116425,
2004-11-24, 01:11:00,VALID,917.331,VALID,0,VALID,99.189,VALID,-0.0679233,VALID,20.0923,VALID,23,VALID,0.319382,
2004-11-24, 01:12:00,VALID,917.335,VALID,0,VALID,99.1623,VALID,-0.0509425,VALID,20.0667,VALID,23,VALID,0.322027,
2004-11-24, 01:13:01,VALID,917.328,VALID,0,VALID,99.3021,VALID,-0.0849042,VALID,20.057,VALID,23,VALID,0.278832,
2004-11-24, 01:14:00,VALID,917.335,VALID,0,VALID,99.484,VALID,-0.101885,VALID,20.0562,VALID,23,VALID,0.26944,
2004-11-24, 01:15:01,VALID,917.333,VALID,0,VALID,99.442,VALID,-0.0509425,VALID,20.0624,VALID,23,VALID,0.341797,
2004-11-24, 01:16:00,VALID,917.322,VALID,0,VALID,99.5043,VALID,-0.0339617,VALID,20.0528,VALID,23,VALID,0.416406,
2004-11-24, 01:17:00,VALID,917.322,VALID,0,VALID,99.5527,VALID,0.0849042,VALID,20.0684,VALID,23,VALID,0.487393,
2004-11-24, 01:18:00,VALID,917.31,VALID,0,VALID,99.559,VALID,0.0339617,VALID,20.0679,VALID,22,VALID,0.432165,
2004-11-24, 01:19:00,VALID,917.302,VALID,0,VALID,99.5488,VALID,0.0339617,VALID,20.0679,VALID,22,VALID,0.134411,
2004-11-24, 01:20:00,VALID,917.282,VALID,0,VALID,99.5145,VALID,0.0169808,VALID,20.088,VALID,22,VALID,0.174716,
2004-11-24, 01:21:00,VALID,917.267,VALID,0,VALID,99.4954,VALID,0,VALID,20.0942,VALID,22,VALID,0.0396341,
2004-11-24, 01:22:01,VALID,917.254,VALID,0,VALID,99.4268,VALID,0,VALID,20.1007,VALID,22,VALID,0.065407,
2004-11-24, 01:23:00,VALID,917.243,VALID,0,VALID,99.2793,VALID,0,VALID,20.0813,VALID,22,VALID,0,
2004-11-24, 01:24:01,VALID,917.223,VALID,0,VALID,99.2297,VALID,0.0339617,VALID,20.0781,VALID,22,VALID,0,
2004-11-24, 01:25:01,VALID,917.212,VALID,0,VALID,99.1648,VALID,0,VALID,20.0582,VALID,22,VALID,0.112038,
2004-11-24, 01:26:00,VALID,917.193,VALID,0,VALID,99.1559,VALID,0.0509425,VALID,20.0388,VALID,22,VALID,0.00952744,
2004-11-24, 01:27:01,VALID,917.171,VALID,0,VALID,99.2716,VALID,0,VALID,20.0455,VALID,22,VALID,0,
2004-11-24, 01:28:01,VALID,917.145,VALID,0,VALID,99.3263,VALID,0,VALID,20.0391,VALID,22,VALID,0,
2004-11-24, 01:29:00,VALID,917.137,VALID,0,VALID,99.3212,VALID,0,VALID,20.0358,VALID,22,VALID,0.0167151,
2004-11-24, 01:30:00,VALID,917.121,VALID,0,VALID,99.3047,VALID,0.0339617,VALID,20.0291,VALID,22,VALID,0.015625,
2004-11-24, 01:31:00,VALID,917.102,VALID,0,VALID,99.3339,VALID,0.0169808,VALID,20.0194,VALID,22,VALID,0.16059,
2004-11-24, 01:32:00,VALID,917.083,VALID,0,VALID,99.2856,VALID,0.0169808,VALID,19.9971,VALID,22,VALID,0,
2004-11-24, 01:33:00,VALID,917.049,VALID,0,VALID,99.3606,VALID,0,VALID,19.9872,VALID,22,VALID,0,
2004-11-24, 01:34:01,VALID,917.027,VALID,0,VALID,99.4369,VALID,0.0169808,VALID,19.9839,VALID,22,VALID,0,
2004-11-24, 01:35:00,VALID,917,VALID,0,VALID,99.3899,VALID,0.0509425,VALID,19.9939,VALID,22,VALID,0.0240385,
2004-11-24, 01:36:01,VALID,916.977,VALID,0,VALID,99.4102,VALID,0.0169808,VALID,19.971,VALID,22,VALID,0.0166903,
2004-11-24, 01:37:00,VALID,916.953,VALID,0,VALID,99.4242,VALID,0.0509425,VALID,19.9551,VALID,22,VALID,0.0797602,
2004-11-24, 01:38:00,VALID,916.922,VALID,0,VALID,99.4942,VALID,0.0169808,VALID,19.9385,VALID,22,VALID,0,
2004-11-24, 01:39:01,VALID,916.907,VALID,0,VALID,99.5285,VALID,0,VALID,19.9253,VALID,22,VALID,0,
2004-11-24, 01:40:00,VALID,916.88,VALID,0,VALID,99.6048,VALID,0.0339617,VALID,19.9328,VALID,22,VALID,0,
2004-11-24, 01:41:01,VALID,916.868,VALID,0,VALID,99.7218,VALID,0.0169808,VALID,19.9422,VALID,22,VALID,0,
2004-11-24, 01:42:01,VALID,916.844,VALID,0,VALID,99.7892,VALID,0.0169808,VALID,19.9544,VALID,22,VALID,0.0270833,
2004-11-24, 01:43:00,VALID,916.821,VALID,0,VALID,99.7892,VALID,0,VALID,19.9648,VALID,22,VALID,0.309152,
2004-11-24, 01:44:01,VALID,916.799,VALID,0,VALID,99.751,VALID,0,VALID,19.978,VALID,22,VALID,0.428993,
2004-11-24, 01:45:01,VALID,916.784,VALID,0,VALID,99.6887,VALID,0.0169808,VALID,19.9713,VALID,24,VALID,0.477515,
2004-11-24, 01:46:00,VALID,916.759,VALID,0,VALID,99.5768,VALID,-0.0169808,VALID,19.9747,VALID,25,VALID,0.451527,
2004-11-24, 01:47:00,VALID,916.742,VALID,0,VALID,99.4942,VALID,-0.0679233,VALID,19.9661,VALID,30,VALID,0.588415,
2004-11-24, 01:48:00,VALID,916.699,VALID,0,VALID,99.4789,VALID,-0.0679233,VALID,19.9469,VALID,36,VALID,0.673209,
2004-11-24, 01:49:01,VALID,916.679,VALID,0,VALID,99.5158,VALID,-0.0509425,VALID,19.9203,VALID,38,VALID,0.659446,
2004-11-24, 01:50:01,VALID,916.653,VALID,0,VALID,99.531,VALID,-0.0509425,VALID,19.9149,VALID,41,VALID,0.768229,
2004-11-24, 01:51:01,VALID,916.62,VALID,0,VALID,99.5743,VALID,-0.0849042,VALID,19.8955,VALID,42,VALID,0.721294,
2004-11-24, 01:52:00,VALID,916.612,VALID,0,VALID,99.634,VALID,-0.0849042,VALID,19.8888,VALID,42,VALID,0.734189,
2004-11-24, 01:53:01,VALID,916.584,VALID,0,VALID,99.6646,VALID,-0.101885,VALID,19.8657,VALID,42,VALID,0.68457,
2004-11-24, 01:54:00,VALID,916.565,VALID,0,VALID,99.704,VALID,-0.0679233,VALID,19.863,VALID,42,VALID,0.487723,
2004-11-24, 01:55:00,VALID,916.547,VALID,0,VALID,99.7714,VALID,-0.101885,VALID,19.8635,VALID,42,VALID,0.443359,
2004-11-24, 01:56:00,VALID,916.542,VALID,0,VALID,99.8413,VALID,-0.101885,VALID,19.8567,VALID,42,VALID,0.397347,
2004-11-24, 01:57:01,VALID,916.53,VALID,0,VALID,99.84,VALID,-0.101885,VALID,19.8667,VALID,42,VALID,0.234375,
2004-11-24, 01:58:00,VALID,916.529,VALID,0,VALID,99.7955,VALID,-0.101885,VALID,19.8699,VALID,42,VALID,0.0550595,
2004-11-24, 01:59:01,VALID,916.509,VALID,0,VALID,99.7256,VALID,-0.0849042,VALID,19.8535,VALID,42,VALID,0.0204613,
2004-11-24, 02:00:00,VALID,916.489,VALID,0,VALID,99.7319,VALID,-0.101885,VALID,19.8471,VALID,42,VALID,0,
2004-11-24, 02:01:00,VALID,916.48,VALID,0,VALID,99.8197,VALID,-0.0849042,VALID,19.854,VALID,42,VALID,0.357067,
2004-11-24, 02:02:01,VALID,916.454,VALID,0,VALID,99.8655,VALID,-0.101885,VALID,19.8535,VALID,42,VALID,0.517383,
2004-11-24, 02:03:01,VALID,916.447,VALID,0,VALID,99.8527,VALID,-0.118866,VALID,19.8508,VALID,42,VALID,0.476935,
2004-11-24, 02:04:00,VALID,916.426,VALID,0,VALID,99.8184,VALID,-0.0849042,VALID,19.8339,VALID,42,VALID,0.423363,
2004-11-24, 02:05:01,VALID,916.4,VALID,0,VALID,99.8502,VALID,-0.101885,VALID,19.8408,VALID,42,VALID,0.445871,
2004-11-24, 02:06:01,VALID,916.39,VALID,0,VALID,99.9023,VALID,-0.101885,VALID,19.8473,VALID,42,VALID,0.311047,
2004-11-24, 02:07:01,VALID,916.384,VALID,0,VALID,99.9634,VALID,-0.0849042,VALID,19.8438,VALID,42,VALID,0.0944444,
2004-11-24, 02:08:00,VALID,916.367,VALID,0,VALID,99.9647,VALID,-0.101885,VALID,19.8692,VALID,42,VALID,0,
2004-11-24, 02:09:00,VALID,916.357,VALID,0,VALID,99.8769,VALID,-0.101885,VALID,19.8796,VALID,42,VALID,0,
2004-11-24, 02:10:00,VALID,916.336,VALID,0,VALID,99.8566,VALID,-0.118866,VALID,19.8734,VALID,42,VALID,0.00213068,
2004-11-24, 02:11:00,VALID,916.328,VALID,0,VALID,99.9151,VALID,-0.101885,VALID,19.8958,VALID,42,VALID,0.093936,
2004-11-24, 02:12:00,VALID,916.313,VALID,0,VALID,99.8858,VALID,-0.118866,VALID,19.9027,VALID,42,VALID,0.179102,
2004-11-24, 02:13:01,VALID,916.299,VALID,0,VALID,99.9341,VALID,-0.0849042,VALID,19.9054,VALID,42,VALID,0.248242,
2004-11-24, 02:14:01,VALID,916.284,VALID,0,VALID,99.854,VALID,-0.101885,VALID,19.8925,VALID,42,VALID,0.269622,
2004-11-24, 02:15:00,VALID,916.289,VALID,0,VALID,99.8273,VALID,-0.101885,VALID,19.889,VALID,42,VALID,0.139236,
2004-11-24, 02:16:01,VALID,916.274,VALID,0,VALID,99.7587,VALID,-0.101885,VALID,19.8687,VALID,42,VALID,0.0126953,
2004-11-24, 02:17:01,VALID,916.257,VALID,0,VALID,99.5628,VALID,-0.101885,VALID,19.8471,VALID,42,VALID,0,
2004-11-24, 02:18:01,VALID,916.248,VALID,0,VALID,99.5221,VALID,-0.101885,VALID,19.8317,VALID,42,VALID,0.0343387,
2004-11-24, 02:19:01,VALID,916.232,VALID,0,VALID,99.6633,VALID,-0.101885,VALID,19.8085,VALID,42,VALID,0.259766,
2004-11-24, 02:20:01,VALID,916.205,VALID,0,VALID,99.6798,VALID,-0.101885,VALID,19.7795,VALID,42,VALID,0.258194,
2004-11-24, 02:21:01,VALID,916.184,VALID,0,VALID,99.8095,VALID,-0.101885,VALID,19.7502,VALID,42,VALID,0.326882,
2004-11-24, 02:22:01,VALID,916.165,VALID,0,VALID,99.9367,VALID,-0.101885,VALID,19.734,VALID,42,VALID,0.468006,
2004-11-24, 02:23:01,VALID,916.148,VALID,0,VALID,99.999,VALID,-0.118866,VALID,19.7472,VALID,42,VALID,0.37128,
2004-11-24, 02:24:01,VALID,916.131,VALID,0,VALID,100,VALID,-0.0849042,VALID,19.7278,VALID,42,VALID,0.458939,
2004-11-24, 02:25:00,VALID,916.119,VALID,0,VALID,100,VALID,-0.101885,VALID,19.7218,VALID,42,VALID,0.503634,
2004-11-24, 02:26:01,VALID,916.103,VALID,0,VALID,100,VALID,-0.118866,VALID,19.7057,VALID,42,VALID,0.443576,
2004-11-24, 02:27:01,VALID,916.091,VALID,0,VALID,100,VALID,-0.0679233,VALID,19.6858,VALID,42,VALID,0.292188,
2004-11-24, 02:28:01,VALID,916.092,VALID,0,VALID,100,VALID,-0.118866,VALID,19.6831,VALID,42,VALID,0.184783,
2004-11-24, 02:29:01,VALID,916.083,VALID,0,VALID,100,VALID,-0.101885,VALID,19.6731,VALID,42,VALID,0.0852273,
2004-11-24, 02:30:01,VALID,916.071,VALID,0,VALID,100,VALID,-0.101885,VALID,19.657,VALID,42,VALID,0.0712209,
2004-11-24, 02:31:01,VALID,916.064,VALID,0,VALID,100,VALID,-0.101885,VALID,19.6436,VALID,42,VALID,0.000558036,
2004-11-24, 02:32:01,VALID,916.046,VALID,0,VALID,100,VALID,0,VALID,19.6456,VALID,42,VALID,0.188616,
2004-11-24, 02:33:01,VALID,916.025,VALID,0,VALID,100,VALID,0,VALID,19.6262,VALID,42,VALID,0.14826,
2004-11-24, 02:34:01,VALID,916.011,VALID,0,VALID,100,VALID,0.0169808,VALID,19.6262,VALID,42,VALID,0.134629,
2004-11-24, 02:35:01,VALID,916.001,VALID,0,VALID,100,VALID,0,VALID,19.6394,VALID,42,VALID,0.132626,
2004-11-24, 02:36:01,VALID,915.987,VALID,0,VALID,100,VALID,0,VALID,19.659,VALID,42,VALID,0,
2004-11-24, 02:37:01,VALID,915.972,VALID,0,VALID,100,VALID,-0.0339617,VALID,19.6652,VALID,42,VALID,0,
2004-11-24, 02:38:01,VALID,915.956,VALID,0,VALID,100,VALID,0,VALID,19.6655,VALID,42,VALID,0,
2004-11-24, 02:39:01,VALID,915.951,VALID,0,VALID,100,VALID,0.0169808,VALID,19.663,VALID,42,VALID,0,
2004-11-24, 02:40:01,VALID,915.915,VALID,0,VALID,100,VALID,0,VALID,19.6294,VALID,42,VALID,0,
2004-11-24, 02:41:01,VALID,915.903,VALID,0,VALID,100,VALID,-0.0339617,VALID,19.6232,VALID,42,VALID,0,
2004-11-24, 02:42:01,VALID,915.895,VALID,0,VALID,100,VALID,0,VALID,19.6073,VALID,42,VALID,0.093564,
2004-11-24, 02:43:01,VALID,915.882,VALID,0,VALID,100,VALID,0,VALID,19.6038,VALID,42,VALID,0.287946,
2004-11-24, 02:44:01,VALID,915.875,VALID,0,VALID,100,VALID,0,VALID,19.5914,VALID,42,VALID,0.254954,
2004-11-24, 02:45:01,VALID,915.87,VALID,0,VALID,100,VALID,0,VALID,19.5688,VALID,42,VALID,0.382422,
2004-11-24, 02:46:01,VALID,915.862,VALID,0,VALID,100,VALID,-0.0169808,VALID,19.5368,VALID,42,VALID,0.599414,
2004-11-24, 02:47:01,VALID,915.867,VALID,0,VALID,100,VALID,-0.0169808,VALID,19.5037,VALID,42,VALID,0.603711,
2004-11-24, 02:48:00,VALID,915.856,VALID,0,VALID,100,VALID,-0.0169808,VALID,19.4846,VALID,42,VALID,0.408249,
2004-11-24, 02:49:00,VALID,915.864,VALID,0,VALID,100,VALID,-0.0339617,VALID,19.4622,VALID,42,VALID,0.25191,
2004-11-24, 02:50:00,VALID,915.864,VALID,0,VALID,100,VALID,0,VALID,19.4657,VALID,42,VALID,0.110863,
2004-11-24, 02:51:00,VALID,915.86,VALID,0,VALID,100,VALID,-0.0169808,VALID,19.4555,VALID,42,VALID,0.223514,
2004-11-24, 02:52:00,VALID,915.861,VALID,0,VALID,100,VALID,-0.0169808,VALID,19.4426,VALID,42,VALID,0.367001,
2004-11-24, 02:53:00,VALID,915.855,VALID,0,VALID,100,VALID,0,VALID,19.4396,VALID,42,VALID,0.351563,
2004-11-24, 02:54:00,VALID,915.852,VALID,0,VALID,100,VALID,0,VALID,19.4362,VALID,40,VALID,0.379464,
2004-11-24, 02:55:00,VALID,915.853,VALID,0,VALID,100,VALID,-0.0169808,VALID,19.4359,VALID,36,VALID,0.420945,
2004-11-24, 02:56:00,VALID,915.854,VALID,0,VALID,100,VALID,0,VALID,19.4399,VALID,36,VALID,0.304501,
2004-11-24, 02:57:00,VALID,915.85,VALID,0,VALID,100,VALID,0,VALID,19.4267,VALID,36,VALID,0.137695,
2004-11-24, 02:58:00,VALID,915.851,VALID,0,VALID,100,VALID,-0.0169808,VALID,19.4362,VALID,36,VALID,0.0268895,
2004-11-24, 02:59:00,VALID,915.855,VALID,0,VALID,100,VALID,0,VALID,19.4392,VALID,30,VALID,0.308036,
2004-11-24, 03:00:00,VALID,915.849,VALID,0,VALID,100,VALID,0,VALID,19.4625,VALID,7,VALID,0.397507,
2004-11-24, 03:01:00,VALID,915.856,VALID,0,VALID,100,VALID,0,VALID,19.4486,VALID,4,VALID,0.235518,
2004-11-24, 03:02:00,VALID,915.835,VALID,0,VALID,100,VALID,0,VALID,19.4652,VALID,4,VALID,0,
2004-11-24, 03:03:00,VALID,915.831,VALID,0,VALID,100,VALID,0,VALID,19.459,VALID,4,VALID,0,
2004-11-24, 03:04:00,VALID,915.831,VALID,0,VALID,100,VALID,0.0169808,VALID,19.468,VALID,4,VALID,0,
2004-11-24, 03:05:00,VALID,915.825,VALID,0,VALID,100,VALID,0,VALID,19.4911,VALID,4,VALID,0,
2004-11-24, 03:06:00,VALID,915.806,VALID,0,VALID,100,VALID,0,VALID,19.4973,VALID,4,VALID,0,
2004-11-24, 03:07:00,VALID,915.791,VALID,0,VALID,100,VALID,0,VALID,19.4938,VALID,4,VALID,0,
2004-11-24, 03:08:00,VALID,915.776,VALID,0,VALID,100,VALID,0,VALID,19.501,VALID,9,VALID,0.492378,
2004-11-24, 03:09:00,VALID,915.763,VALID,0,VALID,100,VALID,0,VALID,19.5107,VALID,14,VALID,0.735677,
2004-11-24, 03:10:00,VALID,915.752,VALID,0,VALID,100,VALID,0,VALID,19.5075,VALID,14,VALID,0.725852,
2004-11-24, 03:11:00,VALID,915.745,VALID,0,VALID,100,VALID,0.0169808,VALID,19.501,VALID,14,VALID,0.507994,
2004-11-24, 03:12:00,VALID,915.747,VALID,0,VALID,100,VALID,-0.0169808,VALID,19.4973,VALID,14,VALID,0.327446,
2004-11-24, 03:13:00,VALID,915.74,VALID,0,VALID,100,VALID,-0.0169808,VALID,19.4978,VALID,14,VALID,0.0436046,
2004-11-24, 03:14:00,VALID,915.746,VALID,0,VALID,100,VALID,0,VALID,19.4948,VALID,14,VALID,0,
2004-11-24, 03:15:00,VALID,915.731,VALID,0,VALID,100,VALID,0,VALID,19.4878,VALID,14,VALID,0.0171494,
2004-11-24, 03:16:00,VALID,915.733,VALID,0,VALID,100,VALID,0,VALID,19.4881,VALID,14,VALID,0,
2004-11-24, 03:17:00,VALID,915.714,VALID,0,VALID,100,VALID,-0.101885,VALID,19.4928,VALID,14,VALID,0,
2004-11-24, 03:18:00,VALID,915.709,VALID,0,VALID,100,VALID,-0.101885,VALID,19.4829,VALID,14,VALID,0,
2004-11-24, 03:19:00,VALID,915.697,VALID,0,VALID,100,VALID,-0.118866,VALID,19.4866,VALID,14,VALID,0,
2004-11-24, 03:20:00,VALID,915.697,VALID,0,VALID,100,VALID,-0.101885,VALID,19.4858,VALID,14,VALID,0.175521,
2004-11-24, 03:21:00,VALID,915.685,VALID,0,VALID,100,VALID,-0.101885,VALID,19.496,VALID,14,VALID,0.262957,
2004-11-24, 03:22:00,VALID,915.683,VALID,0,VALID,100,VALID,-0.101885,VALID,19.4923,VALID,14,VALID,0.261009,
2004-11-24, 03:23:00,VALID,915.689,VALID,0,VALID,100,VALID,-0.101885,VALID,19.4861,VALID,14,VALID,0.182351,
2004-11-24, 03:24:00,VALID,915.694,VALID,0,VALID,100,VALID,-0.101885,VALID,19.493,VALID,14,VALID,0.0197368,
2004-11-24, 03:25:00,VALID,915.701,VALID,0,VALID,100,VALID,-0.0849042,VALID,19.4796,VALID,14,VALID,0,
2004-11-24, 03:26:00,VALID,915.699,VALID,0,VALID,100,VALID,-0.0849042,VALID,19.4769,VALID,14,VALID,0,
2004-11-24, 03:27:00,VALID,915.702,VALID,0,VALID,100,VALID,-0.101885,VALID,19.4667,VALID,14,VALID,0,
2004-11-24, 03:28:00,VALID,915.708,VALID,0,VALID,100,VALID,-0.0849042,VALID,19.4439,VALID,14,VALID,0,
2004-11-24, 03:29:00,VALID,915.691,VALID,0,VALID,100,VALID,-0.101885,VALID,19.4533,VALID,14,VALID,0,
2004-11-24, 03:30:00,VALID,915.68,VALID,0,VALID,100,VALID,-0.118866,VALID,19.4506,VALID,14,VALID,0,
2004-11-24, 03:31:00,VALID,915.66,VALID,0,VALID,100,VALID,-0.0849042,VALID,19.4506,VALID,14,VALID,0,
2004-11-24, 03:32:00,VALID,915.65,VALID,0,VALID,100,VALID,0.0169808,VALID,19.4332,VALID,14,VALID,0,
2004-11-24, 03:33:00,VALID,915.631,VALID,0,VALID,100,VALID,0.0169808,VALID,19.4136,VALID,14,VALID,0.00625,
2004-11-24, 03:34:00,VALID,915.616,VALID,0,VALID,100,VALID,0,VALID,19.4237,VALID,14,VALID,0.264509,
2004-11-24, 03:35:00,VALID,915.615,VALID,0,VALID,100,VALID,0.0169808,VALID,19.4069,VALID,14,VALID,0.117188,
2004-11-24, 03:36:00,VALID,915.591,VALID,0,VALID,100,VALID,0,VALID,19.4004,VALID,14,VALID,0.0487805,
2004-11-24, 03:37:00,VALID,915.576,VALID,0,VALID,100,VALID,0.0339617,VALID,19.4041,VALID,14,VALID,0.0216206,
2004-11-24, 03:38:00,VALID,915.569,VALID,0,VALID,100,VALID,0.0339617,VALID,19.3977,VALID,14,VALID,0,
2004-11-24, 03:39:00,VALID,915.565,VALID,0,VALID,100,VALID,0.0169808,VALID,19.3974,VALID,14,VALID,0,